When you browse on this site, cookies collect data to enhance your experience and personalize the content and advertising you see.
Visit our Privacy Policy to learn more. By continuing to use the site, you agree to this use of cookies and data.
  • In United Kingdom
  • List of Countries
  • For 7 days
  • Water Temperature
  • Satellite Maps
  • Weather Map
  • Weather Widgets
  • user-avatar
    Login

    Hourly Weather Pecs

    Today, 27 June, Thursday

    Time Temperature Precipitation Wind Pressure Humidity
    00:00 +23°C° 0 mm 1 mps 747 mmHg 84%
    01:00 +23°C° 0 mm 1 mps 747 mmHg 86%
    02:00 +23°C° 0 mm 1 mps 747 mmHg 86%
    03:00 +22°C° 0 mm 1 mps 747 mmHg 87%
    04:00 +22°C° 0 mm 1 mps 746 mmHg 88%
    05:00 +23°C° 0 mm 1 mps 746 mmHg 85%
    06:00 +25°C° 0 mm 2 mps 746 mmHg 82%
    07:00 +26°C° 0 mm 2 mps 746 mmHg 80%
    08:00 +27°C° 0 mm 2 mps 746 mmHg 76%
    09:00 +29°C° 0 mm 2 mps 746 mmHg 71%
    10:00 +30°C° 0 mm 3 mps 746 mmHg 67%
    11:00 +31°C° 0 mm 3 mps 745 mmHg 66%
    12:00 +33°C° 0 mm 3 mps 745 mmHg 65%
    13:00 +34°C° 0 mm 3 mps 745 mmHg 63%
    14:00 +34°C° 0.5 mm 3 mps 744 mmHg 65%
    15:00 +34°C° 0.5 mm 3 mps 744 mmHg 67%
    16:00 +34°C° 0.5 mm 3 mps 743 mmHg 69%
    17:00 +31°C° 0.3 mm 3 mps 743 mmHg 74%
    18:00 +29°C° 0.3 mm 3 mps 743 mmHg 79%
    19:00 +27°C° 0.3 mm 4 mps 743 mmHg 84%
    20:00 +26°C° 0 mm 4 mps 744 mmHg 80%
    21:00 +25°C° 0 mm 4 mps 744 mmHg 76%
    22:00 +22°C° 0 mm 4 mps 744 mmHg 72%
    23:00 +21°C° 0 mm 4 mps 745 mmHg 70%

    Tomorrow, 28 June, Friday

    Time Temperature Precipitation Wind Pressure Humidity
    00:00 +20°C° 0 mm 4 mps 745 mmHg 67%
    01:00 +19°C° 0 mm 4 mps 745 mmHg 65%
    02:00 +18°C° 0 mm 3 mps 746 mmHg 66%
    03:00 +17°C° 0 mm 3 mps 746 mmHg 67%
    04:00 +16°C° 0 mm 3 mps 746 mmHg 67%
    05:00 +17°C° 0 mm 3 mps 746 mmHg 69%
    06:00 +18°C° 0 mm 4 mps 746 mmHg 70%
    07:00 +19°C° 0 mm 4 mps 746 mmHg 72%
    08:00 +21°C° 0 mm 4 mps 747 mmHg 68%
    09:00 +22°C° 0 mm 5 mps 747 mmHg 65%
    10:00 +23°C° 0 mm 5 mps 747 mmHg 61%
    11:00 +23°C° 0 mm 5 mps 747 mmHg 60%
    12:00 +25°C° 0 mm 5 mps 746 mmHg 59%
    13:00 +25°C° 0 mm 5 mps 746 mmHg 58%
    14:00 +25°C° 0 mm 5 mps 746 mmHg 59%
    15:00 +25°C° 0 mm 4 mps 746 mmHg 60%
    16:00 +25°C° 0 mm 4 mps 746 mmHg 61%
    17:00 +24°C° 0 mm 3 mps 746 mmHg 67%
    18:00 +21°C° 0 mm 3 mps 746 mmHg 73%
    19:00 +20°C° 0 mm 2 mps 746 mmHg 79%
    20:00 +19°C° 0 mm 2 mps 746 mmHg 81%
    21:00 +18°C° 0 mm 2 mps 747 mmHg 83%
    22:00 +18°C° 0 mm 1 mps 747 mmHg 84%
    23:00 +18°C° 0 mm 1 mps 747 mmHg 85%

    Day after tomorrow, 29 June, Saturday

    Time Temperature Precipitation Wind Pressure Humidity
    00:00 +18°C° 0 mm 1 mps 747 mmHg 85%
    01:00 +16°C° 0 mm 1 mps 747 mmHg 85%
    02:00 +16°C° 0 mm 1 mps 747 mmHg 87%
    03:00 +15°C° 0 mm 1 mps 747 mmHg 88%
    04:00 +15°C° 0 mm 1 mps 747 mmHg 89%
    05:00 +16°C° 0 mm 1 mps 747 mmHg 86%
    06:00 +19°C° 0 mm 1 mps 747 mmHg 82%
    07:00 +20°C° 0 mm 1 mps 747 mmHg 78%
    08:00 +22°C° 0 mm 1 mps 747 mmHg 73%
    09:00 +23°C° 0 mm 1 mps 747 mmHg 67%
    10:00 +25°C° 0 mm 1 mps 748 mmHg 62%
    11:00 +25°C° 0 mm 1 mps 747 mmHg 59%
    12:00 +26°C° 0 mm 1 mps 747 mmHg 56%
    13:00 +27°C° 0 mm 1 mps 747 mmHg 53%
    14:00 +27°C° 0 mm 1 mps 747 mmHg 53%
    15:00 +27°C° 0 mm 1 mps 746 mmHg 54%
    16:00 +27°C° 0 mm 1 mps 746 mmHg 55%
    17:00 +25°C° 0 mm 1 mps 746 mmHg 61%
    18:00 +24°C° 0 mm 1 mps 746 mmHg 67%
    19:00 +23°C° 0 mm 1 mps 746 mmHg 73%
    20:00 +21°C° 0 mm 1 mps 746 mmHg 75%
    21:00 +20°C° 0 mm 1 mps 747 mmHg 76%
    22:00 +17°C° 0 mm 0 mps 747 mmHg 78%
    23:00 +17°C° 0 mm 0 mps 747 mmHg 80%

    30 June, Sunday

    Time Temperature Precipitation Wind Pressure Humidity
    00:00 +17°C° 0 mm 0 mps 747 mmHg 82%
    01:00 +16°C° 0 mm 0 mps 747 mmHg 84%
    02:00 +16°C° 0 mm 0 mps 747 mmHg 84%
    03:00 +16°C° 0 mm 0 mps 747 mmHg 85%
    04:00 +15°C° 0 mm 0 mps 747 mmHg 86%
    05:00 +17°C° 0 mm 0 mps 747 mmHg 82%
    06:00 +18°C° 0 mm 0 mps 747 mmHg 78%
    07:00 +22°C° 0 mm 1 mps 747 mmHg 74%
    08:00 +23°C° 0 mm 1 mps 747 mmHg 70%
    09:00 +25°C° 0 mm 1 mps 748 mmHg 66%
    10:00 +26°C° 0 mm 2 mps 748 mmHg 62%
    11:00 +26°C° 0 mm 2 mps 748 mmHg 60%
    12:00 +27°C° 0 mm 2 mps 747 mmHg 58%
    13:00 +28°C° 0 mm 2 mps 747 mmHg 56%
    14:00 +28°C° 0 mm 2 mps 747 mmHg 57%
    15:00 +28°C° 0 mm 2 mps 747 mmHg 58%
    16:00 +28°C° 0 mm 2 mps 746 mmHg 59%
    17:00 +26°C° 0 mm 2 mps 746 mmHg 65%
    18:00 +25°C° 0 mm 2 mps 746 mmHg 70%
    19:00 +23°C° 0 mm 2 mps 746 mmHg 76%
    20:00 +21°C° 0 mm 2 mps 746 mmHg 76%
    21:00 +21°C° 0 mm 1 mps 746 mmHg 76%
    22:00 +20°C° 0 mm 1 mps 746 mmHg 76%
    23:00 +19°C° 0 mm 1 mps 746 mmHg 78%

    1 July, Monday

    Time Temperature Precipitation Wind Pressure Humidity
    00:00 +19°C° 0 mm 1 mps 746 mmHg 79%
    01:00 +18°C° 0 mm 1 mps 746 mmHg 81%
    02:00 +18°C° 0 mm 1 mps 746 mmHg 82%
    03:00 +16°C° 0 mm 1 mps 745 mmHg 83%
    04:00 +16°C° 0 mm 1 mps 745 mmHg 83%
    05:00 +19°C° 0 mm 1 mps 745 mmHg 80%
    06:00 +20°C° 0 mm 1 mps 745 mmHg 76%
    07:00 +22°C° 0 mm 1 mps 746 mmHg 72%
    08:00 +24°C° 0 mm 2 mps 746 mmHg 68%
    09:00 +25°C° 0 mm 2 mps 745 mmHg 64%
    10:00 +27°C° 0 mm 2 mps 745 mmHg 60%
    11:00 +27°C° 0 mm 2 mps 745 mmHg 58%
    12:00 +28°C° 0 mm 2 mps 745 mmHg 55%
    13:00 +29°C° 0 mm 2 mps 744 mmHg 52%
    14:00 +29°C° 0 mm 2 mps 744 mmHg 54%
    15:00 +29°C° 0 mm 2 mps 744 mmHg 56%
    16:00 +29°C° 0 mm 2 mps 743 mmHg 57%
    17:00 +28°C° 0 mm 2 mps 743 mmHg 63%
    18:00 +26°C° 0 mm 2 mps 743 mmHg 69%
    19:00 +25°C° 0 mm 2 mps 742 mmHg 75%
    20:00 +23°C° 0 mm 2 mps 742 mmHg 77%
    21:00 +22°C° 0 mm 1 mps 742 mmHg 80%
    22:00 +21°C° 0 mm 1 mps 742 mmHg 82%
    23:00 +21°C° 0 mm 1 mps 742 mmHg 82%

    2 July, Tuesday

    Time Temperature Precipitation Wind Pressure Humidity
    00:00 +21°C° 0 mm 1 mps 742 mmHg 83%
    01:00 +18°C° 0 mm 0 mps 743 mmHg 83%
    02:00 +18°C° 0 mm 0 mps 742 mmHg 83%
    03:00 +20°C° 0 mm 1 mps 742 mmHg 83%
    04:00 +20°C° 0 mm 1 mps 742 mmHg 83%
    05:00 +21°C° 0 mm 1 mps 742 mmHg 81%
    06:00 +23°C° 0 mm 2 mps 743 mmHg 80%
    07:00 +24°C° 0 mm 2 mps 743 mmHg 78%
    08:00 +26°C° 0 mm 2 mps 743 mmHg 72%
    09:00 +28°C° 0 mm 2 mps 743 mmHg 66%
    10:00 +30°C° 0 mm 2 mps 743 mmHg 61%
    11:00 +30°C° 0 mm 2 mps 743 mmHg 60%
    12:00 +31°C° 0 mm 3 mps 743 mmHg 59%
    13:00 +31°C° 0 mm 3 mps 743 mmHg 58%
    14:00 +31°C° 0 mm 3 mps 743 mmHg 60%
    15:00 +31°C° 0 mm 3 mps 743 mmHg 61%
    16:00 +31°C° 0 mm 3 mps 742 mmHg 62%
    17:00 +29°C° 0 mm 3 mps 742 mmHg 68%
    18:00 +28°C° 0 mm 3 mps 742 mmHg 74%
    19:00 +26°C° 0 mm 3 mps 742 mmHg 79%
    20:00 +25°C° 0.1 mm 3 mps 743 mmHg 81%
    21:00 +24°C° 0.1 mm 3 mps 743 mmHg 82%
    22:00 +22°C° 0.1 mm 3 mps 743 mmHg 83%
    23:00 +21°C° 0.8 mm 2 mps 744 mmHg 85%
    Show more